Palchem 1 — 9HA2097 — position and weather

sailwx.info

Track history (hours):
 
Tides and Currents Weather Stations Pressure Air Temp Water Temp Dewpoint Dewpoint Depression Visibility Wind Speed Wind Dir Waves Ship Positions

Palchem 1

Last reported at 2014-Jul-24 19:33 UTC. Time now 2014-Jul-24 20:07 UTC.
Position N 37°32' E 025°49'.

Length 143 m; draft 8.6 m.

Type: Ship. MMSI: 249955000.

Date/timePositionNaut miles runAvg speedWind from/ knotsBaromVisibWave heightAir tempDewpointWater temp
2014-Jul-24 19:33N 37°32' E 025°49'1010.5
2014-Jul-24 18:33N 37°22' E 025°53'1111.3
2014-Jul-24 17:33N 37°13' E 026°01'1211.7
2014-Jul-24 16:33N 37°03' E 026°09'1211.3
2014-Jul-24 15:29N 36°53' E 026°17'1111.6
2014-Jul-24 14:33N 36°45' E 026°27'23211.5
2014-Jul-23 18:21N 34°36' E 030°24'2011.2
2014-Jul-23 16:32N 34°27' E 030°46'1111.5
2014-Jul-23 15:33N 34°21' E 030°58'1211.6
2014-Jul-23 14:33N 34°16' E 031°11'1211.8
2014-Jul-23 13:33N 34°10' E 031°23'1211.9
2014-Jul-23 12:33N 34°05' E 031°36'1211.8
2014-Jul-23 11:33N 33°60' E 031°49'1211.7
2014-Jul-23 10:32N 33°54' E 032°01'1111.6
2014-Jul-23 09:33N 33°49' E 032°13'1211.5
2014-Jul-23 08:33N 33°44' E 032°26'1211.6
2014-Jul-23 07:33N 33°38' E 032°38'1211.7
2014-Jul-23 06:33N 33°33' E 032°51'1211.9
2014-Jul-23 05:33N 33°27' E 033°03'1211.6
2014-Jul-23 04:34N 33°22' E 033°15'1212.1
2014-Jul-23 03:33N 33°16' E 033°28'1212.2
2014-Jul-23 02:32N 33°11' E 033°41'1211.9
2014-Jul-23 01:33N 33°05' E 033°54'1211.6
2014-Jul-23 00:33N 33°01' E 034°07'34 0.8
2014-Jul-21 08:27N 32°54' E 034°46'8111.0
2014-Jul-21 01:03N 33°32' E 033°20'911.7
2014-Jul-21 00:14N 33°40' E 033°26'3211.5
2014-Jul-20 21:29N 34°07' E 033°45'1011.2
2014-Jul-20 20:33N 34°16' E 033°51'1311.3
2014-Jul-20 19:23N 34°28' E 033°59'  
2014-Jul-17 02:04N 35°49' E 032°56'1711.5
2014-Jul-17 00:32N 35°48' E 032°34'30711.8
2014-Jul-15 22:31N 36°08' E 026°16'1311.8
2014-Jul-15 21:26N 36°08' E 025°60'1011.7
2014-Jul-15 20:33N 36°07' E 025°47'1211.8
2014-Jul-15 19:34N 36°06' E 025°33'1111.2
2014-Jul-15 18:33N 36°09' E 025°19'1211.8
2014-Jul-15 17:33N 36°10' E 025°05'1212.0
2014-Jul-15 16:33N 36°16' E 024°52'1211.7
2014-Jul-15 15:33N 36°22' E 024°40'1212.3
2014-Jul-15 14:33N 36°29' E 024°26'1212.3
2014-Jul-15 13:33N 36°35' E 024°13'1111.4
2014-Jul-15 12:33N 36°43' E 024°03'1412.1
2014-Jul-15 11:26N 36°56' E 023°58'1112.3
2014-Jul-15 10:32N 37°06' E 023°55'2412.2
2014-Jul-15 08:34N 37°29' E 023°46'1212.3
2014-Jul-15 07:34N 37°41' E 023°42'1212.2
2014-Jul-15 06:33N 37°53' E 023°37'9 8.9
2014-Jul-15 05:33N 38°01' E 023°32'2 1.8
2014-Jul-15 04:32N 38°02' E 023°31'0 0.0
2014-Jul-15 03:29N 38°02' E 023°31'0 0.0
2014-Jul-15 02:32N 38°02' E 023°31'0 0.0
2014-Jul-15 01:32N 38°02' E 023°31'0 0.0
2014-Jul-15 00:32N 38°02' E 023°31'0 0.0
2014-Jul-14 23:32N 38°02' E 023°31'0 0.0
2014-Jul-14 22:29N 38°02' E 023°31'0 0.0
2014-Jul-14 21:32N 38°02' E 023°31'  
Track history (hours):
 
Tides and Currents Weather Stations Pressure Air Temp Water Temp Dewpoint Dewpoint Depression Visibility Wind Speed Wind Dir Waves Ship Positions

Palchem 1

Last reported at 2014-Jul-24 19:33 UTC. Time now 2014-Jul-24 20:07 UTC.
Position N 37°32' E 025°49'.

Length 143 m; draft 8.6 m.

Type: Ship. MMSI: 249955000.

Date/timePositionNaut miles runAvg speedWind from/ knotsBaromVisibWave heightAir tempDewpointWater temp
2014-Jul-24 19:33N 37°32' E 025°49'1010.5
2014-Jul-24 18:33N 37°22' E 025°53'1111.3
2014-Jul-24 17:33N 37°13' E 026°01'1211.7
2014-Jul-24 16:33N 37°03' E 026°09'1211.3
2014-Jul-24 15:29N 36°53' E 026°17'1111.6
2014-Jul-24 14:33N 36°45' E 026°27'23211.5
2014-Jul-23 18:21N 34°36' E 030°24'2011.2
2014-Jul-23 16:32N 34°27' E 030°46'1111.5
2014-Jul-23 15:33N 34°21' E 030°58'1211.6
2014-Jul-23 14:33N 34°16' E 031°11'1211.8
2014-Jul-23 13:33N 34°10' E 031°23'1211.9
2014-Jul-23 12:33N 34°05' E 031°36'1211.8
2014-Jul-23 11:33N 33°60' E 031°49'1211.7
2014-Jul-23 10:32N 33°54' E 032°01'1111.6
2014-Jul-23 09:33N 33°49' E 032°13'1211.5
2014-Jul-23 08:33N 33°44' E 032°26'1211.6
2014-Jul-23 07:33N 33°38' E 032°38'1211.7
2014-Jul-23 06:33N 33°33' E 032°51'1211.9
2014-Jul-23 05:33N 33°27' E 033°03'1211.6
2014-Jul-23 04:34N 33°22' E 033°15'1212.1
2014-Jul-23 03:33N 33°16' E 033°28'1212.2
2014-Jul-23 02:32N 33°11' E 033°41'1211.9
2014-Jul-23 01:33N 33°05' E 033°54'1211.6
2014-Jul-23 00:33N 33°01' E 034°07'34 0.8
2014-Jul-21 08:27N 32°54' E 034°46'8111.0
2014-Jul-21 01:03N 33°32' E 033°20'911.7
2014-Jul-21 00:14N 33°40' E 033°26'3211.5
2014-Jul-20 21:29N 34°07' E 033°45'1011.2
2014-Jul-20 20:33N 34°16' E 033°51'1311.3
2014-Jul-20 19:23N 34°28' E 033°59'  
2014-Jul-17 02:04N 35°49' E 032°56'1711.5
2014-Jul-17 00:32N 35°48' E 032°34'30711.8
2014-Jul-15 22:31N 36°08' E 026°16'1311.8
2014-Jul-15 21:26N 36°08' E 025°60'1011.7
2014-Jul-15 20:33N 36°07' E 025°47'1211.8
2014-Jul-15 19:34N 36°06' E 025°33'1111.2
2014-Jul-15 18:33N 36°09' E 025°19'1211.8
2014-Jul-15 17:33N 36°10' E 025°05'1212.0
2014-Jul-15 16:33N 36°16' E 024°52'1211.7
2014-Jul-15 15:33N 36°22' E 024°40'1212.3
2014-Jul-15 14:33N 36°29' E 024°26'1212.3
2014-Jul-15 13:33N 36°35' E 024°13'1111.4
2014-Jul-15 12:33N 36°43' E 024°03'1412.1
2014-Jul-15 11:26N 36°56' E 023°58'1112.3
2014-Jul-15 10:32N 37°06' E 023°55'2412.2
2014-Jul-15 08:34N 37°29' E 023°46'1212.3
2014-Jul-15 07:34N 37°41' E 023°42'1212.2
2014-Jul-15 06:33N 37°53' E 023°37'9 8.9
2014-Jul-15 05:33N 38°01' E 023°32'2 1.8
2014-Jul-15 04:32N 38°02' E 023°31'0 0.0
2014-Jul-15 03:29N 38°02' E 023°31'0 0.0
2014-Jul-15 02:32N 38°02' E 023°31'0 0.0
2014-Jul-15 01:32N 38°02' E 023°31'0 0.0
2014-Jul-15 00:32N 38°02' E 023°31'0 0.0
2014-Jul-14 23:32N 38°02' E 023°31'0 0.0
2014-Jul-14 22:29N 38°02' E 023°31'0 0.0
2014-Jul-14 21:32N 38°02' E 023°31'  

Dump ship's entire track history